Terminal Aerodrome Forecast
Issued by NWS

Home | Current Version | Previous Version | Text Only | Print | Product List | Glossary On
Versions: 1 2 3 4 5 6 7 8 9 10 11 12 13 14 15 16 17 18 19 20 21 22 23 24 25 26 27 28 29 30 31 32 33 34 35 36 37 38 39 40 41 42 43 44 45 46 47 48 49 50
000
FTUS46 KOTX 281425 AAA
TAFPUW
TAF AMD
KPUW 281425Z 2814/0112 27010KT 5SM -SHSN SCT008 BKN025 OVC050
     FM281530 26010KT P6SM SCT015 BKN060
     FM281800 26012G18KT P6SM SCT050 BKN080
     FM282100 28012G18KT P6SM VCSH BKN030 BKN080
     FM010200 24005KT P6SM SCT035 BKN100=

USA.gov is the U.S. government's official web portal to all federal, state and local government web resources and services.